Moffett NAS, CA

11:50 AM PDT on July 24, 2017 (GMT -0700)
Moffett Federal Air Field

Weather History for KNUQ - June, 2013

Change the Weather History Date:

Monday, June 17, 2013

  Actual Average Record
Temperature  
Mean Temperature 65 °F 67 °F  
Max Temperature 76 °F 77 °F 99 °F (1993)
Min Temperature 54 °F 57 °F 46 °F (1948)
Degree Days  
Heating Degree Days 0    
Month to date heating degree days 9  
Since 1 June heating degree days 9  
Since 1 July heating degree days 2095  
Cooling Degree Days 0    
Month to date cooling degree days 32  
Year to date cooling degree days 106  
Since 1 June cooling degree days 32  
Growing Degree Days 15 (Base 50)    
Moisture  
Dew Point 52 °F    
Average Humidity 66    
Maximum Humidity 86    
Minimum Humidity 46    
Precipitation  
Precipitation 0.00 in 0.00 in 0.02 in (2005)
Month to date precipitation 0.00 0.08  
Year to date precipitation 1.79 9.61  
Since 1 July precipitation 9.56  
Sea Level Pressure  
Sea Level Pressure 30.11 in    
Wind  
Wind Speed 8 mph (North)    
Max Wind Speed 24 mph    
Max Gust Speed 30 mph    
Visibility 10 miles    
Events      
T = Trace of Precipitation, MM = Missing Value Source: NWS Daily Summary

Daily Weather History Graph

Daily Weather History Graph

Search for Another Location

Airport or City:

Trip Planner

Search our weather history database for the weather conditions in past years. The results will help you decide how hot, cold, wet, or windy it might be!

Date:

Astronomy

Jun. 17, 2013 Rise Set
Actual Time 5:47 AM PDT 8:31 PM PDT
Civil Twilight 5:15 AM PDT 9:02 PM PDT
Nautical Twilight 4:37 AM PDT 9:41 PM PDT
Astronomical Twilight 3:53 AM PDT 10:25 PM PDT
Moon 2:21 PM PDT (6/17) 1:18 AM PDT (6/17)
Length of Visible Light 15h 46m
Length of Day
14h 44m
First Quarter, 61% of the Moon is Illuminated
Jun 17
First Quarter
Jun 23
Full
Jun 29
Last Quarter
Jul 8
New
Jul 15
First Quarter

Hourly Weather History & Observations

Time (PDT) Temp. Dew Point Humidity Pressure Visibility Wind Dir Wind Speed Gust Speed Precip Events Conditions
12:56 AM 60.1 °F 48.0 °F 64% 30.12 in 10.0 mi NNW 4.6 mph - N/A   Clear
1:56 AM 59.0 °F 48.0 °F 67% 30.12 in 10.0 mi North 4.6 mph - N/A   Clear
2:56 AM 57.9 °F 48.0 °F 70% 30.11 in 10.0 mi Calm Calm - N/A   Clear
3:56 AM 55.9 °F 46.9 °F 72% 30.11 in 10.0 mi NE 3.5 mph - N/A   Clear
4:56 AM 55.9 °F 48.9 °F 77% 30.11 in 10.0 mi Calm Calm - N/A   Clear
5:56 AM 55.9 °F 52.0 °F 87% 30.12 in 10.0 mi ENE 4.6 mph - N/A   Clear
6:56 AM 57.0 °F 52.0 °F 83% 30.13 in 10.0 mi ENE 6.9 mph - N/A   Clear
7:32 AM 59.0 °F 51.8 °F 77% 30.12 in 10.0 mi ENE 4.6 mph - N/A   Mostly Cloudy
7:40 AM 59.0 °F 51.8 °F 77% 30.12 in 10.0 mi NE 4.6 mph - N/A   Scattered Clouds
7:56 AM 60.1 °F 52.0 °F 75% 30.13 in 10.0 mi NE 4.6 mph - N/A   Partly Cloudy
8:56 AM 62.1 °F 51.1 °F 67% 30.14 in 10.0 mi ENE 3.5 mph - N/A   Clear
9:56 AM 64.9 °F 52.0 °F 63% 30.13 in 10.0 mi NE 6.9 mph - N/A   Clear
10:56 AM 69.1 °F 55.0 °F 61% 30.12 in 10.0 mi North 11.5 mph - N/A   Clear
11:56 AM 72.0 °F 55.0 °F 55% 30.12 in 10.0 mi North 18.4 mph - N/A   Clear
12:56 PM 73.0 °F 55.0 °F 53% 30.12 in 10.0 mi NNW 21.9 mph 27.6 mph N/A   Clear
1:56 PM 73.9 °F 55.0 °F 52% 30.12 in 10.0 mi NNW 20.7 mph - N/A   Clear
2:56 PM 75.0 °F 53.1 °F 46% 30.11 in 10.0 mi WNW 10.4 mph - N/A   Clear
3:56 PM 75.0 °F 53.1 °F 46% 30.10 in 10.0 mi WNW 10.4 mph 17.3 mph N/A   Clear
4:56 PM 73.0 °F 54.0 °F 51% 30.09 in 10.0 mi NNW 12.7 mph - N/A   Clear
5:56 PM 71.1 °F 53.1 °F 53% 30.08 in 10.0 mi West 10.4 mph 17.3 mph N/A   Clear
6:56 PM 69.1 °F 53.1 °F 57% 30.08 in 10.0 mi West 6.9 mph - N/A   Clear
7:56 PM 64.9 °F 52.0 °F 63% 30.08 in 10.0 mi WNW 10.4 mph - N/A   Clear
8:56 PM 61.0 °F 53.1 °F 75% 30.08 in 10.0 mi WNW 6.9 mph - N/A   Clear
9:56 PM 60.1 °F 52.0 °F 75% 30.09 in 10.0 mi NNE 4.6 mph - N/A   Clear
10:56 PM 59.0 °F 52.0 °F 78% 30.09 in 10.0 mi North 5.8 mph - N/A   Clear
11:56 PM 60.1 °F 53.1 °F 78% 30.08 in 10.0 mi Calm Calm - N/A   Clear